Location: A�t �Alizem
(31.2076°N, 8.7872°W)
Time: 10:03:24
(UTC+00:00)

N. Korean satellite - Pass Details

Date: 24 September 2021
Orbit: 450 x 495 km, 97.3° (Epoch: 15 October)

Event Time Altitude Azimuth Distance (km) Brightness Sun altitude
Rises 05:36:09 0° 14° (NNE) 2,526 10.5 -11.2°
Reaches altitude 10° 05:38:13 10° 18° (NNE) 1,652 9.6 -10.7°
Maximum altitude 05:41:44 65° 100° (E) 534 7.0 -10.0°
Drops below altitude 10° 05:45:18 10° 183° (S) 1,666 9.2 -9.2°
Sets 05:47:23 0° 186° (S) 2,549 10.1 -8.8°
